TGL25C ZSPD-RJOO

Flight info

Callsign TGL25C
Flight time N/A
Altitude 37000
Route LAM81D LAMEN A593 SADLI Y590 BEDAR Y591 FUE Y23 SPIDE Y231 MIRIO Y401 KAINA Y753 IZUMI
Aircraft A320/M-SDE3FGHIRWY/LB1

Departure

Time N/A
Airport Shanghai Pudong International Airport (ZSPD)

Arrival

Time 2026-05-06 11:37
Airport Osaka Itami International Airport (RJOO)
Time Latitude Longitude Altitude Speed Heading
2026-05-06 10:05 31.16257 123.26500 28350 ft 460 kts 51°
2026-05-06 10:05 31.18118 123.29545 28663 ft 462 kts 51°
2026-05-06 10:05 31.19987 123.32607 28969 ft 464 kts 51°
2026-05-06 10:06 31.21862 123.35682 29280 ft 466 kts 51°
2026-05-06 10:06 31.23745 123.38776 29573 ft 468 kts 51°
2026-05-06 10:06 31.25633 123.41882 29857 ft 470 kts 51°
2026-05-06 10:06 31.27529 123.45003 30122 ft 472 kts 51°
2026-05-06 10:07 31.29435 123.48138 30349 ft 474 kts 51°
2026-05-06 10:07 31.31342 123.51280 30588 ft 475 kts 51°
2026-05-06 10:07 31.33258 123.54433 30820 ft 476 kts 51°
2026-05-06 10:07 31.35180 123.57588 31100 ft 476 kts 51°
2026-05-06 10:08 31.37104 123.60734 31451 ft 474 kts 51°
2026-05-06 10:08 31.39025 123.63871 31801 ft 473 kts 51°
2026-05-06 10:08 31.40934 123.66990 32165 ft 471 kts 51°
2026-05-06 10:08 31.42839 123.70105 32515 ft 469 kts 51°
2026-05-06 10:09 31.44734 123.73208 32901 ft 467 kts 51°
2026-05-06 10:09 31.46615 123.76293 33285 ft 465 kts 51°
2026-05-06 10:09 31.48483 123.79365 33648 ft 463 kts 51°
2026-05-06 10:09 31.50348 123.82433 33993 ft 461 kts 51°
2026-05-06 10:10 31.52204 123.85490 34288 ft 460 kts 51°
2026-05-06 10:10 31.54056 123.88537 34571 ft 459 kts 51°
2026-05-06 10:10 31.55908 123.91577 34827 ft 458 kts 51°
2026-05-06 10:10 31.57754 123.94621 35072 ft 457 kts 51°
2026-05-06 10:11 31.59564 123.97682 35334 ft 457 kts 55°
2026-05-06 10:11 31.61033 124.01000 35594 ft 461 kts 64°
2026-05-06 10:11 31.62034 124.04583 35811 ft 464 kts 72°
2026-05-06 10:11 31.62841 124.08244 36012 ft 463 kts 72°
2026-05-06 10:12 31.63654 124.11900 36216 ft 463 kts 72°
2026-05-06 10:12 31.64472 124.15557 36420 ft 463 kts 72°
2026-05-06 10:12 31.65290 124.19203 36621 ft 462 kts 72°
2026-05-06 10:12 31.66110 124.22849 36830 ft 462 kts 71°
2026-05-06 10:13 31.66923 124.26492 37004 ft 461 kts 72°
2026-05-06 10:13 31.67727 124.30128 37044 ft 460 kts 71°
2026-05-06 10:13 31.69713 124.37228 37047 ft 457 kts 66°
2026-05-06 10:14 31.71867 124.44240 37053 ft 456 kts 66°
2026-05-06 10:14 31.74043 124.51241 37047 ft 455 kts 66°
2026-05-06 10:15 31.76184 124.58228 37053 ft 454 kts 66°
2026-05-06 10:15 31.78311 124.65219 37057 ft 454 kts 66°
2026-05-06 10:16 31.80421 124.72220 37058 ft 455 kts 66°
2026-05-06 10:16 31.82527 124.79229 37072 ft 454 kts 66°
2026-05-06 10:17 31.84634 124.86225 37072 ft 454 kts 66°
2026-05-06 10:17 31.86741 124.93220 37073 ft 453 kts 66°
2026-05-06 10:18 31.88826 125.00172 37076 ft 453 kts 66°
2026-05-06 10:18 31.90922 125.07170 37080 ft 453 kts 66°
2026-05-06 10:19 31.93012 125.14168 37081 ft 453 kts 66°
2026-05-06 10:19 31.95095 125.21172 37082 ft 453 kts 66°
2026-05-06 10:20 31.97171 125.28170 37084 ft 453 kts 66°
2026-05-06 10:20 31.99245 125.35170 37079 ft 452 kts 66°
2026-05-06 10:21 32.01316 125.42156 37081 ft 452 kts 66°
2026-05-06 10:21 32.03382 125.49156 37081 ft 452 kts 66°
2026-05-06 10:22 32.05442 125.56161 37079 ft 452 kts 66°
2026-05-06 10:22 32.07504 125.63161 37077 ft 452 kts 66°
2026-05-06 10:23 32.09553 125.70157 37074 ft 451 kts 66°
2026-05-06 10:23 32.11595 125.77161 37084 ft 451 kts 67°
2026-05-06 10:24 32.13636 125.84163 37080 ft 451 kts 66°
2026-05-06 10:24 32.15680 125.91165 37076 ft 451 kts 66°
2026-05-06 10:25 32.17723 125.98180 37078 ft 452 kts 67°
2026-05-06 10:25 32.19757 126.05197 37080 ft 452 kts 67°
2026-05-06 10:26 32.21784 126.12226 37089 ft 452 kts 67°
2026-05-06 10:26 32.23808 126.19269 37088 ft 453 kts 67°
2026-05-06 10:27 32.25830 126.26318 37093 ft 453 kts 67°
2026-05-06 10:27 32.27857 126.33366 37092 ft 453 kts 67°
2026-05-06 10:28 32.29539 126.39214 37083 ft 453 kts 67°
2026-05-06 10:28 32.31553 126.46261 37078 ft 452 kts 67°
2026-05-06 10:29 32.33559 126.53307 37088 ft 452 kts 67°
2026-05-06 10:29 32.35565 126.60351 37084 ft 452 kts 67°
2026-05-06 10:30 32.37564 126.67407 37086 ft 452 kts 67°
2026-05-06 10:30 32.39546 126.74469 37072 ft 452 kts 67°
2026-05-06 10:31 32.41507 126.81545 37075 ft 452 kts 68°
2026-05-06 10:31 32.43449 126.88628 37082 ft 452 kts 68°
2026-05-06 10:32 32.45389 126.95711 37084 ft 453 kts 68°
2026-05-06 10:32 32.47335 127.02806 37082 ft 453 kts 68°
2026-05-06 10:33 32.49267 127.09846 37078 ft 453 kts 68°
2026-05-06 10:33 32.51201 127.16942 37079 ft 453 kts 68°
2026-05-06 10:34 32.53132 127.24040 37089 ft 453 kts 68°
2026-05-06 10:34 32.55065 127.31142 37082 ft 453 kts 68°
2026-05-06 10:35 32.56986 127.38249 37081 ft 453 kts 68°
2026-05-06 10:35 32.58905 127.45360 37080 ft 453 kts 68°
2026-05-06 10:36 32.60820 127.52475 37086 ft 453 kts 69°
2026-05-06 10:36 32.62732 127.59597 37085 ft 453 kts 69°
2026-05-06 10:37 32.64640 127.66722 37082 ft 453 kts 69°
2026-05-06 10:37 32.66543 127.73843 37090 ft 453 kts 69°
2026-05-06 10:38 32.68445 127.80976 37087 ft 453 kts 69°
2026-05-06 10:38 32.70349 127.88118 37089 ft 454 kts 69°
2026-05-06 10:39 32.72244 127.95264 37087 ft 454 kts 69°
2026-05-06 10:39 32.74141 128.02419 37094 ft 454 kts 69°
2026-05-06 10:40 32.76026 128.09575 37090 ft 454 kts 69°
2026-05-06 10:40 32.77911 128.16735 37091 ft 454 kts 69°
2026-05-06 10:41 32.79793 128.23898 37098 ft 454 kts 69°
2026-05-06 10:41 32.81665 128.31064 37090 ft 454 kts 69°
2026-05-06 10:42 32.83535 128.38233 37091 ft 454 kts 69°
2026-05-06 10:42 32.85407 128.45405 37091 ft 454 kts 69°
2026-05-06 10:43 32.87278 128.52583 37087 ft 454 kts 69°
2026-05-06 10:44 32.90070 128.63374 37090 ft 455 kts 69°
2026-05-06 10:44 32.91927 128.70565 37088 ft 455 kts 70°
2026-05-06 10:45 32.93775 128.77715 37086 ft 454 kts 70°
2026-05-06 10:45 32.95619 128.84910 37086 ft 455 kts 70°
2026-05-06 10:46 32.97453 128.92125 37099 ft 455 kts 70°
2026-05-06 10:46 32.99295 128.99336 37100 ft 455 kts 70°
2026-05-06 10:47 33.01142 129.06553 37102 ft 456 kts 70°
2026-05-06 10:47 33.02978 129.13776 37099 ft 455 kts 70°
2026-05-06 10:48 33.04804 129.21003 37094 ft 456 kts 70°
2026-05-06 10:48 33.06634 129.28229 37100 ft 456 kts 70°
2026-05-06 10:49 33.08463 129.35470 37099 ft 456 kts 70°
2026-05-06 10:49 33.10281 129.42706 37086 ft 456 kts 70°
2026-05-06 10:50 33.12097 129.49950 37082 ft 456 kts 70°
2026-05-06 10:50 33.13909 129.57202 37088 ft 456 kts 71°
2026-05-06 10:51 33.15720 129.64459 37084 ft 456 kts 71°
2026-05-06 10:51 33.17526 129.71720 37074 ft 457 kts 71°
2026-05-06 10:52 33.19329 129.78994 37072 ft 457 kts 71°
2026-05-06 10:52 33.21127 129.86277 37064 ft 458 kts 71°
2026-05-06 10:53 33.22928 129.93574 37065 ft 458 kts 71°
2026-05-06 10:53 33.24717 130.00834 37062 ft 458 kts 71°
2026-05-06 10:54 33.26506 130.08140 37046 ft 459 kts 72°
2026-05-06 10:54 33.28298 130.15471 37033 ft 460 kts 72°
2026-05-06 10:55 33.30088 130.22812 37045 ft 460 kts 71°
2026-05-06 10:55 33.31877 130.30157 37041 ft 461 kts 72°
2026-05-06 10:56 33.33660 130.37528 37066 ft 462 kts 72°
2026-05-06 10:56 33.35446 130.44908 37065 ft 462 kts 72°
2026-05-06 10:57 33.37220 130.52258 37029 ft 464 kts 73°
2026-05-06 10:57 33.39014 130.59740 37050 ft 465 kts 73°
2026-05-06 10:58 33.40802 130.67181 37056 ft 466 kts 73°
2026-05-06 10:58 33.42583 130.74635 37059 ft 466 kts 73°
2026-05-06 10:59 33.44363 130.82104 37061 ft 466 kts 73°
2026-05-06 10:59 33.46134 130.89572 37069 ft 466 kts 73°
2026-05-06 11:00 33.47913 130.97064 37033 ft 469 kts 74°
2026-05-06 11:00 33.49688 131.04596 37039 ft 472 kts 74°
2026-05-06 11:01 33.51469 131.12185 37052 ft 474 kts 74°
2026-05-06 11:01 33.53267 131.19828 37076 ft 479 kts 75°
2026-05-06 11:02 33.55070 131.27531 37083 ft 480 kts 75°
2026-05-06 11:02 33.56865 131.35242 37064 ft 481 kts 76°
2026-05-06 11:03 33.58679 131.43033 37074 ft 490 kts 76°
2026-05-06 11:03 33.60514 131.50935 37110 ft 492 kts 75°
2026-05-06 11:04 33.62343 131.58822 37105 ft 490 kts 76°
2026-05-06 11:04 33.64159 131.66699 37066 ft 490 kts 76°
2026-05-06 11:05 33.65967 131.74599 37061 ft 492 kts 76°
2026-05-06 11:05 33.67786 131.82542 37095 ft 497 kts 77°
2026-05-06 11:06 33.69620 131.90601 37086 ft 502 kts 77°
2026-05-06 11:06 33.71465 131.98695 37082 ft 503 kts 77°
2026-05-06 11:07 33.73317 132.06857 37099 ft 511 kts 78°
2026-05-06 11:07 33.75178 132.15109 37107 ft 509 kts 77°
2026-05-06 11:08 33.77030 132.23303 37069 ft 508 kts 78°
2026-05-06 11:08 33.78882 132.31526 37063 ft 512 kts 78°
2026-05-06 11:09 33.80735 132.39814 37084 ft 514 kts 77°
2026-05-06 11:09 33.82577 132.48128 37063 ft 516 kts 79°
2026-05-06 11:10 33.84430 132.56495 37060 ft 518 kts 79°
2026-05-06 11:10 33.86292 132.64880 37047 ft 520 kts 79°
2026-05-06 11:11 33.88158 132.73315 37066 ft 523 kts 79°
2026-05-06 11:11 33.90029 132.81783 37075 ft 524 kts 79°
2026-05-06 11:12 33.91886 132.90255 37093 ft 524 kts 79°
2026-05-06 11:12 33.93430 132.97309 37103 ft 524 kts 79°
2026-05-06 11:13 33.95273 133.05797 37118 ft 524 kts 79°
2026-05-06 11:13 33.97104 133.14300 37105 ft 525 kts 79°
2026-05-06 11:14 33.98940 133.22814 37101 ft 526 kts 79°
2026-05-06 11:14 34.00782 133.31358 37121 ft 527 kts 80°
2026-05-06 11:15 34.02627 133.39930 37117 ft 529 kts 80°
2026-05-06 11:15 34.04461 133.48516 37099 ft 530 kts 80°
2026-05-06 11:16 34.06283 133.57074 37117 ft 530 kts 80°
2026-05-06 11:16 34.08111 133.65695 37109 ft 531 kts 80°
2026-05-06 11:17 34.09940 133.74336 37110 ft 532 kts 81°
2026-05-06 11:17 34.10852 133.78668 36907 ft 533 kts 80°
2026-05-06 11:17 34.11761 133.82997 36387 ft 533 kts 80°
2026-05-06 11:17 34.12673 133.87354 35586 ft 536 kts 80°
2026-05-06 11:18 34.13584 133.91708 34982 ft 535 kts 79°
2026-05-06 11:18 34.14499 133.96066 34340 ft 535 kts 79°
2026-05-06 11:18 34.15412 134.00426 33642 ft 536 kts 79°
2026-05-06 11:18 34.16322 134.04782 32999 ft 533 kts 80°
2026-05-06 11:19 34.17222 134.09111 32424 ft 530 kts 79°
2026-05-06 11:19 34.18115 134.13410 31803 ft 528 kts 79°
2026-05-06 11:19 34.19001 134.17683 31422 ft 522 kts 79°
2026-05-06 11:19 34.19879 134.21922 30860 ft 519 kts 79°
2026-05-06 11:20 34.20751 134.26144 30279 ft 515 kts 79°
2026-05-06 11:20 34.21613 134.30328 29695 ft 512 kts 79°
2026-05-06 11:20 34.22467 134.34484 29222 ft 506 kts 78°
2026-05-06 11:20 34.23297 134.38529 28741 ft 500 kts 78°
2026-05-06 11:21 34.24128 134.42581 28263 ft 494 kts 78°
2026-05-06 11:21 34.24949 134.46595 27826 ft 489 kts 78°
2026-05-06 11:21 34.25757 134.50556 27384 ft 483 kts 78°
2026-05-06 11:21 34.26557 134.54484 26847 ft 479 kts 77°
2026-05-06 11:22 34.27349 134.58381 26326 ft 476 kts 77°
2026-05-06 11:22 34.28133 134.62253 25778 ft 472 kts 77°
2026-05-06 11:22 34.28909 134.66098 25266 ft 469 kts 78°
2026-05-06 11:22 34.29678 134.69914 24771 ft 466 kts 78°
2026-05-06 11:23 34.30443 134.73710 24289 ft 462 kts 77°
2026-05-06 11:23 34.31202 134.77465 23808 ft 458 kts 76°
2026-05-06 11:23 34.31956 134.81198 23245 ft 454 kts 76°
2026-05-06 11:23 34.32701 134.84898 22666 ft 450 kts 76°
2026-05-06 11:24 34.33435 134.88559 22101 ft 447 kts 76°
2026-05-06 11:24 34.34164 134.92200 21552 ft 443 kts 76°
2026-05-06 11:24 34.34884 134.95815 20997 ft 437 kts 76°
2026-05-06 11:24 34.35583 134.99328 20401 ft 423 kts 76°
2026-05-06 11:25 34.36262 135.02737 19786 ft 411 kts 76°
2026-05-06 11:25 34.36923 135.06052 19210 ft 400 kts 76°
2026-05-06 11:25 34.37567 135.09281 18640 ft 390 kts 76°
2026-05-06 11:25 34.38198 135.12439 18023 ft 381 kts 76°
2026-05-06 11:26 34.38814 135.15522 17373 ft 373 kts 76°
2026-05-06 11:26 34.39414 135.18540 16740 ft 365 kts 76°
2026-05-06 11:26 34.40000 135.21506 16129 ft 359 kts 76°
2026-05-06 11:26 34.40572 135.24420 15513 ft 353 kts 77°
2026-05-06 11:27 34.41134 135.27286 15020 ft 345 kts 77°
2026-05-06 11:27 34.41680 135.30071 14623 ft 334 kts 77°
2026-05-06 11:27 34.42218 135.32808 14234 ft 335 kts 77°
2026-05-06 11:27 34.42757 135.35559 13828 ft 337 kts 77°
2026-05-06 11:28 34.43299 135.38320 13402 ft 337 kts 77°
2026-05-06 11:28 34.43840 135.41078 13015 ft 336 kts 77°
2026-05-06 11:28 34.44468 135.43792 12598 ft 335 kts 71°
2026-05-06 11:28 34.45319 135.46422 12183 ft 335 kts 66°
2026-05-06 11:29 34.46288 135.48990 11756 ft 335 kts 64°
2026-05-06 11:29 34.47301 135.51533 11318 ft 335 kts 64°
2026-05-06 11:29 34.48314 135.54060 10863 ft 329 kts 64°
2026-05-06 11:29 34.49279 135.56519 10443 ft 318 kts 65°
2026-05-06 11:30 34.50193 135.58907 10022 ft 308 kts 65°
2026-05-06 11:30 34.51067 135.61231 9555 ft 298 kts 65°
2026-05-06 11:30 34.51907 135.63490 9136 ft 289 kts 66°
2026-05-06 11:30 34.52746 135.65657 8728 ft 279 kts 58°
2026-05-06 11:31 34.54024 135.67343 8333 ft 268 kts 32°
2026-05-06 11:31 34.55677 135.68173 7941 ft 257 kts
2026-05-06 11:31 34.57431 135.68113 7455 ft 252 kts 342°
2026-05-06 11:31 34.58988 135.67211 6954 ft 248 kts 319°
2026-05-06 11:32 34.60209 135.65758 6446 ft 245 kts 311°
2026-05-06 11:32 34.61386 135.64268 6016 ft 242 kts 312°
2026-05-06 11:32 34.62541 135.62824 5667 ft 235 kts 312°
2026-05-06 11:32 34.63674 135.61416 5212 ft 234 kts 312°
2026-05-06 11:33 34.64809 135.59996 4548 ft 234 kts 312°
2026-05-06 11:33 34.65939 135.58568 3873 ft 234 kts 312°
2026-05-06 11:33 34.67058 135.57138 3226 ft 234 kts 311°
2026-05-06 11:33 34.68191 135.55703 2649 ft 236 kts 314°
2026-05-06 11:34 34.69303 135.54338 2482 ft 217 kts 314°
2026-05-06 11:34 34.70335 135.53077 2292 ft 201 kts 314°
2026-05-06 11:34 34.71265 135.51935 2057 ft 181 kts 315°
2026-05-06 11:34 34.72114 135.50889 1825 ft 165 kts 315°
2026-05-06 11:35 34.72899 135.49945 1569 ft 153 kts 319°
2026-05-06 11:35 34.73712 135.49146 1337 ft 148 kts 323°
2026-05-06 11:35 34.74514 135.48380 1185 ft 146 kts 324°
2026-05-06 11:35 34.75333 135.47660 999 ft 145 kts 323°
2026-05-06 11:36 34.76101 135.46869 779 ft 144 kts 319°
2026-05-06 11:36 34.76826 135.46050 529 ft 141 kts 318°
2026-05-06 11:36 34.77527 135.45227 260 ft 139 kts 319°
2026-05-06 11:36 34.78214 135.44441 60 ft 131 kts 318°
2026-05-06 11:37 34.78781 135.43776 44 ft 90 kts 314°
2026-05-06 11:37 34.79102 135.43387 49 ft 40 kts 315°
2026-05-06 11:37 34.79214 135.43249 48 ft 19 kts 314°
2026-05-06 11:37 34.79305 135.43130 46 ft 14 kts 298°
2026-05-06 11:38 34.79279 135.43032 48 ft 11 kts 228°
2026-05-06 11:38 34.79231 135.42970 47 ft 10 kts 227°
2026-05-06 11:38 34.79208 135.42970 47 ft 1 kts 77°
2026-05-06 11:38 34.79213 135.42973 47 ft 4 kts 37°
2026-05-06 11:39 34.79254 135.43008 47 ft 7 kts 35°
2026-05-06 11:39 34.79289 135.43041 48 ft 6 kts 42°
2026-05-06 11:39 34.79336 135.43095 46 ft 12 kts 43°
2026-05-06 11:39 34.79389 135.43179 46 ft 12 kts 83°
2026-05-06 11:40 34.79349 135.43268 49 ft 13 kts 133°
2026-05-06 11:40 34.79277 135.43354 49 ft 15 kts 136°
2026-05-06 11:40 34.79197 135.43451 47 ft 17 kts 135°
2026-05-06 11:40 34.79110 135.43554 47 ft 18 kts 136°
2026-05-06 11:41 34.79020 135.43663 48 ft 19 kts 136°
2026-05-06 11:41 34.78920 135.43772 49 ft 20 kts 137°
2026-05-06 11:41 34.78823 135.43898 48 ft 21 kts 129°
2026-05-06 11:41 34.78721 135.44027 47 ft 22 kts 135°
2026-05-06 11:42 34.78629 135.44139 48 ft 12 kts 127°
2026-05-06 11:42 34.78622 135.44185 49 ft 0 kts 92°
2026-05-06 11:43 34.78629 135.44196 48 ft 5 kts 52°
2026-05-06 11:44 34.78715 135.44222 50 ft 6 kts 48°
2026-05-06 11:44 34.78736 135.44258 50 ft 5 kts 56°
2026-05-06 11:44 34.78747 135.44279 50 ft 0 kts 57°